This is the latest recevied weather packets stored in our database for station/object W8RD. If no packets are shown the sender has not sent any weather packets the latest 10 day(s).
| Time | Temp. | Humidity | Pressure | Rain* | Wind** | Luminosity | Snow |
|---|---|---|---|---|---|---|---|
| 1777954038 | 22.78° C | 69% | 1017.1 hPa | 0 mm | - | 0 W/m² | - |
| 1777953437 | 22.78° C | 69% | 1017 hPa | 0 mm | - | 0 W/m² | - |
| 1777952835 | 23.33° C | 69% | 1016.8 hPa | 0 mm | - | 0 W/m² | - |
| 1777952235 | 23.33° C | 68% | 1017.3 hPa | 0 mm | - | 0 W/m² | - |
| 1777951631 | 23.33° C | 68% | 1017 hPa | 0 mm | - | 0 W/m² | - |
| 1777951030 | 23.33° C | 67% | 1017 hPa | 0 mm | - | 0 W/m² | - |
| 1777950429 | 23.33° C | 67% | 1016.8 hPa | 0 mm | - | 0 W/m² | - |
| 1777949826 | 23.33° C | 68% | 1017.2 hPa | 0 mm | - | 0 W/m² | - |
| 1777949223 | 22.78° C | 66% | 1017.2 hPa | 0 mm | - | 0 W/m² | - |
| 1777948617 | 22.78° C | 65% | 1017 hPa | 0 mm | - | 0 W/m² | - |
| 1777948017 | 22.78° C | 65% | 1017 hPa | 0 mm | - | 0 W/m² | - |
| 1777947416 | 22.22° C | 65% | 1017 hPa | 0 mm | - | 0 W/m² | - |
| 1777946815 | 22.22° C | 64% | 1016.8 hPa | 0 mm | - | 0 W/m² | - |
| 1777946214 | 22.78° C | 63% | 1016.8 hPa | 0 mm | - | 0 W/m² | - |
| 1777945614 | 22.78° C | 62% | 1016.7 hPa | 0 mm | - | 0 W/m² | - |
| 1777945014 | 23.33° C | 60% | 1016.5 hPa | 0 mm | - | 0 W/m² | - |
| 1777944409 | 23.89° C | 59% | 1016.2 hPa | 0 mm | - | 0 W/m² | - |
| 1777943807 | 23.89° C | 58% | 1016.2 hPa | 0 mm | - | 0 W/m² | - |
| 1777943205 | 23.89° C | 58% | 1016 hPa | 0 mm | - | 0 W/m² | - |
| 1777942604 | 24.44° C | 58% | 1016.2 hPa | 0 mm | - | 0 W/m² | - |
| 1777941998 | 23.89° C | 58% | 1015.8 hPa | 0 mm | - | 0 W/m² | - |
| 1777941398 | 23.89° C | 58% | 1015.7 hPa | 0 mm | - | 0 W/m² | - |
| 1777940797 | 24.44° C | 58% | 1015.7 hPa | 0 mm | - | 0 W/m² | - |
| 1777940192 | 24.44° C | 59% | 1015.6 hPa | 0 mm | - | 0 W/m² | - |
| 1777939592 | 24.44° C | 59% | 1015.6 hPa | 0 mm | - | 2 W/m² | - |
* Rain latest hour (hover to see other rain measurements)
** Current wind speed in m/s (hover to see current wind gust speed)